Regional Weather Roundup
Issued by NWS

Home | Current Version | Previous Version | Graphics & Text | Print | Product List | Glossary On
Versions: 1 2 3 4 5 6 7 8 9 10 11 12 13 14 15 16 17 18 19 20 21 22 23 24 25 26 27 28 29 30 31 32 33 34 35 36 37 38 39 40 41 42 43 44 45 46 47 48 49 50
000
ASUS43 KOAX 052202
RWRNE

WEATHER ROUNDUP FOR NEBRASKA
NATIONAL WEATHER SERVICE OMAHA NE
400 PM CST THU MAR 05 2015

NOTES: SATELLITE DATA IS BEING USED TO AUGMENT CLOUD COVER ABOVE
       12000 FEET.
       "FAIR" INDICATES FEW OR NO CLOUDS BELOW 12,000 FEET WITH NO
       SIGNIFICANT WEATHER AND/OR OBSTRUCTIONS TO VISIBILITY.

  * THESE STATIONS DO NOT REPORT WEATHER SUCH AS RAIN...SNOW OR FOG.

NEZ001>004-019>022-054>056-052300-
NEBRASKA PANHANDLE

CITY           SKY/WX    TMP DP  RH WIND       PRES   REMARKS
SCOTTSBLUFF    MOSUNNY   47  14  26 W17G26    30.18S
ALLIANCE       SUNNY     46  10  23 NW21      30.14S
CHADRON        SUNNY     41  22  46 W21       30.16S
KIMBALL        PTSUNNY   39  15  36 NW20G26   30.17S WCI  30
SIDNEY         CLOUDY    44  13  28 NW18G25   30.19S
$$

NEZ057>060-069>072-079>082-052300-
SOUTHWEST NEBRASKA

CITY           SKY/WX    TMP DP  RH WIND       PRES   REMARKS
NORTH PLATTE   MOSUNNY   49  12  22 W17G23    30.18F
IMPERIAL         N/A     46  12  25 W15       30.19F
LEXINGTON      PTSUNNY   42  10  27 S10G17    30.23F
MCCOOK         PTSUNNY   51   9  18 SW13      30.20F
$$

NEZ005>010-023>029-035>040-094-052300-
NORTH CENTRAL NEBRASKA

CITY           SKY/WX    TMP DP  RH WIND       PRES   REMARKS
VALENTINE      CLOUDY    44   8  23 W9        30.14S
AINSWORTH      SUNNY     44   5  20 W8        30.15R
BROKEN BOW     PTSUNNY   45  12  26 SW15G25   30.20F
ORD            SUNNY     41   5  22 S14       30.22F
$$

NEZ041-046>049-061>064-073>077-083>087-052300-
SOUTH CENTRAL NEBRASKA

CITY           SKY/WX    TMP DP  RH WIND       PRES   REMARKS
GRAND ISLAND   SUNNY     39   8  27 SW20      30.30F WCI  29
AURORA         SUNNY     38   7  26 S13       30.30F WCI  31
HASTINGS       SUNNY     40   4  22 SW13G18   30.29F WCI  32
HEBRON         SUNNY     38   1  20 SW9       30.36F WCI  32
HOLDREGE       MOSUNNY   41   8  25 SW9G16    30.26F
KEARNEY *      MOSUNNY   39  10  30 SW13G21   30.27F WCI  32
YORK           SUNNY     37   7  28 S10G17    30.34S WCI  30
$$

NEZ011>018-030>034-042>045-052300-
NORTHEAST NEBRASKA

CITY           SKY/WX    TMP DP  RH WIND       PRES   REMARKS
NORFOLK        SUNNY     35   5  28 S21       30.29F WCI  24
ALBION         SUNNY     36   4  25 S14G22    30.28F WCI  27
BLAIR          SUNNY     32   5  32 S10       30.39F WCI  24
COLUMBUS *     SUNNY     36   7  30 S15       30.35F WCI  26
FREMONT        SUNNY     33   4  29 S13       30.39F WCI  24
TEKAMAH        SUNNY     32   4  30 S17       30.41F WCI  21
WAYNE          SUNNY     34   3  26 S13       30.33S WCI  25
$$

NEZ050>053-065>068-078-088>093-052300-
SOUTHEAST NEBRASKA

CITY           SKY/WX    TMP DP  RH WIND       PRES   REMARKS
LINCOLN        SUNNY     35   6  29 S14       30.40F WCI  26
OMAHA EPPLEY   SUNNY     30   4  33 S10       30.43F WCI  21
BEATRICE       SUNNY     34   6  30 S9        30.40F WCI  27
FALLS CITY     SUNNY     32   3  29 SE7       30.46F WCI  26
NEBRASKA CITY  SUNNY     31  -4  21 S7        30.43F WCI  25
$$

NEZ044-045-051>053-067-052300-
OMAHA AREA

CITY           SKY/WX    TMP DP  RH WIND       PRES   REMARKS
OMAHA EPPLEY   SUNNY     30   4  33 S10       30.43F WCI  21
BLAIR          SUNNY     32   5  32 S10       30.39F WCI  24
FREMONT        SUNNY     33   4  29 S13       30.39F WCI  24
OFFUTT AFB     SUNNY     30   4  32 S7        30.42F WCI  23
WAHOO          FAIR      33   1  25 S13G21    30.39F WCI  24
$$


USA.gov is the U.S. government's official web portal to all federal, state and local government web resources and services.